Regional Weather Roundup
Issued by NWS Charleston, WV

Home | Current Version | Previous Version | Graphics & Text | Print | Product List | Glossary On
Versions: 1 2 3 4 5 6 7 8 9 10 11 12 13 14 15 16 17 18 19 20 21 22 23 24 25 26 27 28 29 30 31 32 33 34 35 36 37 38 39 40 41 42 43 44 45 46 47 48 49 50
000
ASUS41 KRLX 261810
RWRRLX
West Virginia Regional Weather Roundup
National Weather Service Charleston WV
100 PM EST MON JAN 26 2015

Note: "fair" indicates few or no clouds below 12,000 feet with no
significant weather and/or obstructions to visibility.

WVZ003-261900-
Northern Panhandle of West Virginia

CITY           SKY/WX    TMP DP  RH WIND       PRES   REMARKS
WHEELING       SNOW      25  22  88 N10       29.70F VSB 1/2
$$

WVZ009-261900-
Northwest West Virginia

CITY           SKY/WX    TMP DP  RH WIND       PRES   REMARKS
PARKERSBURG    LGT SNOW  27  22  81 NW9       29.78S
$$

WVZ006-261900-
Western West Virginia

CITY           SKY/WX    TMP DP  RH WIND       PRES   REMARKS
HUNTINGTON     CLOUDY    25  22  88 W9        29.82S FOG
$$

WVZ015-261900-
West Central West Virginia

CITY           SKY/WX    TMP DP  RH WIND       PRES   REMARKS
CHARLESTON     LGT SNOW  29  26  89 NW10G17   29.76S VSB 3/4
$$

WVZ022-031-261900-
North Central West Virginia

CITY           SKY/WX    TMP DP  RH WIND       PRES   REMARKS
CLARKSBURG     LGT SNOW  33  32  96 W5        29.65S VSB 3/4
MORGANTOWN     LGT SNOW  34  30  85 N5        29.65S VSB 1
$$

WVZ025-035-042-045-261900-
Southern West Virginia

CITY           SKY/WX    TMP DP  RH WIND       PRES   REMARKS
BECKLEY        CLOUDY    35  32  88 NW12      29.64S
LOGAN          LGT SNOW  28  28 100 NW9       29.74R
BLUEFIELD      MIX PCPN  37  33  85 W12       29.63F
LEWISBURG      CLOUDY    39  36  91 CALM      29.61F
$$

WVZ047-261900-
Northern Mountains of West Virginia

CITY           SKY/WX    TMP DP  RH WIND       PRES   REMARKS
ELKINS         LGT RAIN  36  35  96 CALM      29.61F FOG
$$

WVZ052-261900-
Eastern Panhandle of West Virginia

CITY           SKY/WX    TMP DP  RH WIND       PRES   REMARKS
MARTINSBURG    CLOUDY    29  23  78 N8        29.75F HAZE
PETERSBURG     LGT SNOW  32  32  99 N3        29.72F VSB 1
$$


USA.gov is the U.S. government's official web portal to all federal, state and local government web resources and services.